Time,TemperatureF,DewpointF,PressureIn,WindDirection,WindDirectionDegrees,WindSpeedMPH,WindSpeedGustMPH,Humidity,HourlyPrecipIn,Conditions,Clouds,dailyrainin,SolarRadiationWatts/m^2,SoftwareType,DateUTC
2013-03-07 00:32:00,27.0,25.0,-100.00,SE,125,5.0,7.0,93,0.00,,,0.00,0.000000,,2013-03-07 07:32:00,
2013-03-07 00:42:00,27.0,25.0,-100.00,SE,125,5.0,7.0,93,0.00,,,0.00,0.000000,,2013-03-07 07:42:00,
2013-03-07 00:52:00,27.0,25.0,-100.00,SE,125,5.0,7.0,93,0.00,,,0.00,0.000000,,2013-03-07 07:52:00,
2013-03-07 01:32:00,26.0,24.0,-100.00,SSE,147,2.0,9.0,92,0.00,,,0.00,0.000000,,2013-03-07 08:32:00,
2013-03-07 01:43:00,26.0,24.0,-100.00,SSE,147,2.0,9.0,92,0.00,,,0.00,0.000000,,2013-03-07 08:43:00,
2013-03-07 01:52:00,26.0,24.0,-100.00,SSE,147,2.0,9.0,92,0.00,,,0.00,0.000000,,2013-03-07 08:52:00,
2013-03-07 02:32:00,27.0,25.0,-100.00,ESE,111,6.0,10.0,91,0.00,,,0.00,0.000000,,2013-03-07 09:32:00,
2013-03-07 02:42:00,27.0,25.0,-100.00,ESE,111,6.0,10.0,91,0.00,,,0.00,0.000000,,2013-03-07 09:42:00,
2013-03-07 02:52:00,27.0,25.0,-100.00,ESE,111,6.0,10.0,91,0.00,,,0.00,0.000000,,2013-03-07 09:52:00,
2013-03-07 03:22:00,26.0,23.0,-100.00,SSE,152,6.0,8.0,89,0.00,,,0.00,0.000000,,2013-03-07 10:22:00,
2013-03-07 03:32:00,26.0,23.0,-100.00,SSE,152,6.0,8.0,89,0.00,,,0.00,0.000000,,2013-03-07 10:32:00,
2013-03-07 03:42:00,26.0,23.0,-100.00,SSE,152,6.0,8.0,89,0.00,,,0.00,0.000000,,2013-03-07 10:42:00,
2013-03-07 03:51:00,26.0,23.0,-100.00,SSE,152,6.0,8.0,89,0.00,,,0.00,0.000000,,2013-03-07 10:51:00,
2013-03-07 04:33:00,25.0,22.0,-100.00,WNW,283,2.0,6.0,89,0.00,,,0.00,0.000000,,2013-03-07 11:33:00,
2013-03-07 04:42:00,25.0,22.0,-100.00,WNW,283,2.0,6.0,89,0.00,,,0.00,0.000000,,2013-03-07 11:42:00,
2013-03-07 04:52:00,25.0,22.0,-100.00,WNW,283,2.0,6.0,89,0.00,,,0.00,0.000000,,2013-03-07 11:52:00,
2013-03-07 05:22:00,26.0,24.0,-100.00,East,94,4.0,12.0,92,0.00,,,0.00,0.000000,,2013-03-07 12:22:00,
2013-03-07 05:33:00,26.0,24.0,-100.00,East,94,4.0,12.0,92,0.00,,,0.00,0.000000,,2013-03-07 12:33:00,
2013-03-07 05:42:00,26.0,24.0,-100.00,East,94,4.0,12.0,92,0.00,,,0.00,0.000000,,2013-03-07 12:42:00,
2013-03-07 05:52:00,26.0,24.0,-100.00,East,94,4.0,12.0,92,0.00,,,0.00,0.000000,,2013-03-07 12:52:00,
2013-03-07 06:32:00,23.0,21.0,-100.00,SE,136,7.0,9.0,91,0.00,,,0.00,0.000000,,2013-03-07 13:32:00,
2013-03-07 06:42:00,23.0,21.0,-100.00,SE,136,7.0,9.0,91,0.00,,,0.00,0.000000,,2013-03-07 13:42:00,
2013-03-07 06:52:00,23.0,21.0,-100.00,SE,136,7.0,9.0,91,0.00,,,0.00,0.000000,,2013-03-07 13:52:00,
2013-03-07 07:42:00,23.0,19.0,-100.00,SE,126,7.0,10.0,85,0.00,,,0.00,4.000000,,2013-03-07 14:42:00,
2013-03-07 07:52:00,23.0,19.0,-100.00,SE,126,7.0,10.0,85,0.00,,,0.00,4.000000,,2013-03-07 14:52:00,
2013-03-07 08:32:00,25.0,21.0,-100.00,SE,135,5.0,10.0,85,0.00,,,0.00,90.000000,,2013-03-07 15:32:00,
2013-03-07 08:42:00,25.0,21.0,-100.00,SE,135,5.0,10.0,85,0.00,,,0.00,90.000000,,2013-03-07 15:42:00,
2013-03-07 08:52:00,25.0,21.0,-100.00,SE,135,5.0,10.0,85,0.00,,,0.00,90.000000,,2013-03-07 15:52:00,
2013-03-07 09:32:00,30.0,24.0,-100.00,SSE,158,7.0,9.0,77,-99.99,,,0.00,285.000000,,2013-03-07 16:32:00,
2013-03-07 09:42:00,30.0,24.0,-100.00,SSE,158,7.0,9.0,77,-99.99,,,0.00,285.000000,,2013-03-07 16:42:00,
2013-03-07 09:52:00,30.0,24.0,-100.00,SSE,158,7.0,9.0,77,-99.99,,,0.00,285.000000,,2013-03-07 16:52:00,
2013-03-07 10:32:00,36.0,28.0,-100.00,SE,144,8.0,11.0,71,0.00,,,0.00,450.000000,,2013-03-07 17:32:00,
2013-03-07 10:42:00,36.0,28.0,-100.00,SE,144,8.0,11.0,71,0.00,,,0.00,450.000000,,2013-03-07 17:42:00,
2013-03-07 10:52:00,36.0,28.0,-100.00,SE,144,8.0,11.0,71,0.00,,,0.00,450.000000,,2013-03-07 17:52:00,
2013-03-07 11:21:00,41.0,29.0,-100.00,SSE,161,8.0,11.0,63,0.00,,,0.00,602.000000,,2013-03-07 18:21:00,
2013-03-07 11:32:00,41.0,29.0,-100.00,SSE,161,8.0,11.0,63,0.00,,,0.00,602.000000,,2013-03-07 18:32:00,
2013-03-07 11:42:00,41.0,29.0,-100.00,SSE,161,8.0,11.0,63,0.00,,,0.00,602.000000,,2013-03-07 18:42:00,
2013-03-07 11:52:00,41.0,29.0,-100.00,SSE,161,8.0,11.0,63,0.00,,,0.00,602.000000,,2013-03-07 18:52:00,
2013-03-07 12:34:00,45.0,30.0,-100.00,SE,130,7.0,14.0,55,0.00,,,0.00,661.000000,,2013-03-07 19:34:00,
2013-03-07 12:43:00,45.0,30.0,-100.00,SE,130,7.0,14.0,55,0.00,,,0.00,661.000000,,2013-03-07 19:43:00,
2013-03-07 12:52:00,45.0,30.0,-100.00,SE,130,7.0,14.0,55,0.00,,,0.00,661.000000,,2013-03-07 19:52:00,
2013-03-07 13:32:00,51.0,30.0,-100.00,WSW,247,6.0,14.0,45,0.00,,,0.00,681.000000,,2013-03-07 20:32:00,
2013-03-07 13:42:00,51.0,30.0,-100.00,WSW,247,6.0,14.0,45,0.00,,,0.00,681.000000,,2013-03-07 20:42:00,
2013-03-07 13:52:00,51.0,30.0,-100.00,WSW,247,6.0,14.0,45,0.00,,,0.00,681.000000,,2013-03-07 20:52:00,
2013-03-07 14:32:00,54.0,24.0,-100.00,NNW,329,9.0,16.0,31,0.00,,,0.00,611.000000,,2013-03-07 21:32:00,
2013-03-07 14:42:00,54.0,24.0,-100.00,NNW,329,9.0,16.0,31,0.00,,,0.00,611.000000,,2013-03-07 21:42:00,
2013-03-07 14:52:00,54.0,24.0,-100.00,NNW,329,9.0,16.0,31,0.00,,,0.00,611.000000,,2013-03-07 21:52:00,
2013-03-07 15:32:00,48.0,24.0,-100.00,SSE,168,14.0,17.0,39,0.00,,,0.00,453.000000,,2013-03-07 22:32:00,
2013-03-07 15:42:00,48.0,24.0,-100.00,SSE,168,14.0,17.0,39,0.00,,,0.00,453.000000,,2013-03-07 22:42:00,
2013-03-07 15:52:00,48.0,24.0,-100.00,SSE,168,14.0,17.0,39,0.00,,,0.00,453.000000,,2013-03-07 22:52:00,
2013-03-07 16:33:00,46.0,26.0,-100.00,SE,142,12.0,15.0,46,0.00,,,0.00,281.000000,,2013-03-07 23:33:00,
2013-03-07 16:42:00,46.0,26.0,-100.00,SE,142,12.0,15.0,46,0.00,,,0.00,281.000000,,2013-03-07 23:42:00,
2013-03-07 16:52:00,46.0,26.0,-100.00,SE,142,12.0,15.0,46,0.00,,,0.00,281.000000,,2013-03-07 23:52:00,
2013-03-07 17:22:00,45.0,25.0,-100.00,SE,139,7.0,14.0,45,0.00,,,0.00,165.000000,,2013-03-08 00:22:00,
2013-03-07 17:33:00,45.0,25.0,-100.00,SE,139,7.0,14.0,45,0.00,,,0.00,165.000000,,2013-03-08 00:33:00,
2013-03-07 17:43:00,45.0,25.0,-100.00,SE,139,7.0,14.0,45,0.00,,,0.00,165.000000,,2013-03-08 00:43:00,
2013-03-07 17:52:00,45.0,25.0,-100.00,SE,139,7.0,14.0,45,0.00,,,0.00,165.000000,,2013-03-08 00:52:00,
2013-03-07 18:21:00,42.0,25.0,-100.00,ESE,108,5.0,9.0,50,0.00,,,-99.99,50.000000,,2013-03-08 01:21:00,
2013-03-07 18:32:00,42.0,25.0,-100.00,ESE,108,5.0,9.0,50,0.00,,,-99.99,50.000000,,2013-03-08 01:32:00,
2013-03-07 18:42:00,42.0,25.0,-100.00,ESE,108,5.0,9.0,50,0.00,,,-99.99,50.000000,,2013-03-08 01:42:00,
2013-03-07 18:51:00,42.0,25.0,-100.00,ESE,108,5.0,9.0,50,0.00,,,-99.99,50.000000,,2013-03-08 01:51:00,
2013-03-07 19:31:00,40.0,21.0,-100.00,ENE,59,5.0,8.0,46,0.00,,,0.00,1.000000,,2013-03-08 02:31:00,
2013-03-07 19:42:00,40.0,21.0,-100.00,ENE,59,5.0,8.0,46,0.00,,,0.00,1.000000,,2013-03-08 02:42:00,
2013-03-07 19:52:00,40.0,21.0,-100.00,ENE,59,5.0,8.0,46,0.00,,,0.00,1.000000,,2013-03-08 02:52:00,
2013-03-07 20:32:00,37.0,27.0,-100.00,ESE,116,6.0,9.0,66,0.00,,,0.00,0.000000,,2013-03-08 03:32:00,
2013-03-07 20:42:00,37.0,27.0,-100.00,ESE,116,6.0,9.0,66,0.00,,,0.00,0.000000,,2013-03-08 03:42:00,
2013-03-07 20:52:00,37.0,27.0,-100.00,ESE,116,6.0,9.0,66,0.00,,,0.00,0.000000,,2013-03-08 03:52:00,
2013-03-07 21:21:00,36.0,29.0,-100.00,ESE,108,7.0,13.0,75,0.00,,,0.00,0.000000,,2013-03-08 04:21:00,
2013-03-07 21:32:00,36.0,29.0,-100.00,ESE,108,7.0,13.0,75,0.00,,,0.00,0.000000,,2013-03-08 04:32:00,
2013-03-07 21:42:00,36.0,29.0,-100.00,ESE,108,7.0,13.0,75,0.00,,,0.00,0.000000,,2013-03-08 04:42:00,
2013-03-07 21:51:00,36.0,29.0,-100.00,ESE,108,7.0,13.0,75,0.00,,,0.00,0.000000,,2013-03-08 04:51:00,
2013-03-07 22:32:00,35.0,26.0,-100.00,ESE,107,12.0,17.0,70,0.00,,,0.00,0.000000,,2013-03-08 05:32:00,
2013-03-07 22:42:00,35.0,26.0,-100.00,ESE,107,12.0,17.0,70,0.00,,,0.00,0.000000,,2013-03-08 05:42:00,
2013-03-07 22:52:00,35.0,26.0,-100.00,ESE,107,12.0,17.0,70,0.00,,,0.00,0.000000,,2013-03-08 05:52:00,
2013-03-07 23:32:00,35.0,27.0,-100.00,East,98,8.0,14.0,71,0.00,,,0.00,0.000000,,2013-03-08 06:32:00,
2013-03-07 23:42:00,35.0,27.0,-100.00,East,98,8.0,14.0,71,0.00,,,0.00,0.000000,,2013-03-08 06:42:00,
2013-03-07 23:51:00,35.0,27.0,-100.00,East,98,8.0,14.0,71,0.00,,,0.00,0.000000,,2013-03-08 06:51:00,